カタログに戻る

STARLINK-32902

運用中通信VLEO
NORAD 62898·PAYLOAD·🇺🇸 United States

打ち上げ Feb 4, 2025 から Cape Canaveral Space Force Station

Loading…

次のパス (今後24時間)

TLE

最新Source: CelesTrak SupGP

元期: Sep 14, 2026, 22:34 UTC

1 62898C 25024V   26257.94076389 -.00019938  00000+0 -72213-3 0  2570
2 62898  43.0034 336.1718 0001566 268.7044 104.4517 15.27589339    12

AllMySatでSTARLINK-32902をリアルタイム追跡

Download on the App Store